Location: ?????
(31.8092°N, 35.2590°E)
Time: 19:25:30
(UTC+00:00)

Cosmos 1455 Rocket - Pass Details

Date: 20 October 2021
Orbit: 604 x 630 km, 82.5° (Epoch: 04 December)

Event Time Altitude Azimuth Distance (km) Brightness Sun altitude
Rises 15:55:18 0° 192° (SSW) 2,872 6.7 -12.2°
Reaches altitude 10° 15:57:31 10° 195° (SSW) 1,975 5.9 -12.7°
Maximum altitude 16:01:52 64° 277° (W) 689 3.5 -13.6°
Drops below altitude 10° 16:06:16 10° 359° (N) 2,002 5.6 -14.5°
Sets 16:08:32 0° 3° (N) 2,916 6.5 -15.0°
